Location: Camerons Lookout
(40.9833°S, 175.9333°E)
Time: 06:32:02
(UTC+00:00)

Okean-O - Pass Details

Date: 14 January 2026
Orbit: 627 x 630 km, 97.9° (Epoch: 17 February)

Event Time Altitude Azimuth Distance (km) Brightness Sun altitude
Rises 10:16:18 0° 171° (S) 2,960 6.8 -20.9°
Reaches altitude 10° 10:18:32 10° 174° (S) 2,044 5.9 -21.1°
Maximum altitude 10:22:55 62° 254° (WSW) 723 3.0 -21.6°
Enters shadow 10:24:49 32° 322° (NW) 1,095 3.6 -21.8°
